QPF
0.00 0.00 0.00 0.00 0.00 0.00 0.00 0.01 0.03 0.08 0.06 0.06 0.13 0.15 0.07 0.05 0.06 0.63 1.28 0.37 0.22 0.42 0.42 0.18 0.06 0.02 0.00 0.00 0.00 0.00 0.00 0.00 0.00 0.00 0.00 0.00 0.00 0.00 0.00 0.00 0.00 0.00 0.00
0.00 0.00 0.00 0.00 0.00 0.00 0.00 0.01 0.05 0.10 0.17 0.11 0.15 0.20 0.09 0.05 0.04 0.09 0.96 1.44 0.50 0.33 0.57 0.68 0.51 0.11 0.02 0.00 0.00 0.00 0.00 0.00 0.00 0.00 0.00 0.00 0.00 0.00 0.00 0.00 0.00 0.00 0.00
0.00 0.00 0.00 0.00 0.00 0.01 0.00 0.01 0.01 0.06 0.10 0.20 0.18 0.23 0.19 0.07 0.06 0.06 0.19 0.87 0.75 0.38 0.31 0.57 1.01 0.72 0.26 0.05 0.00 0.00 0.00 0.00 0.00 0.00 0.00 0.00 0.00 0.00 0.00 0.00 0.00 0.00 0.00
0.00 0.00 0.00 0.00 0.00 0.00 0.00 0.00 0.01 0.02 0.06 0.14 0.32 0.23 0.26 0.06 0.03 0.03 0.02 0.13 0.22 0.26 0.16 0.16 0.41 0.71 0.76 0.47 0.10 0.00 0.00 0.00 0.00 0.00 0.00 0.00 0.00 0.00 0.00 0.00 0.00 0.00 0.00
0.00 0.00 0.00 0.00 0.00 0.00 0.00 0.00 0.00 0.01 0.03 0.12 0.28 0.34 0.16 0.02 0.01 0.02 0.01 0.00 0.02 0.04 0.08 0.06 0.08 0.23 0.27 0.29 0.20 0.05 0.00 0.00 0.00 0.00 0.00 0.00 0.00 0.00 0.00 0.00 0.00 0.00 0.00
0.00 0.00 0.00 0.00 0.01 0.01 0.00 0.00 0.00 0.00 0.02 0.07 0.25 0.39 0.28 0.03 0.00 0.02 0.01 0.00 0.01 0.01 0.01 0.01 0.02 0.04 0.09 0.08 0.04 0.02 0.00 0.00 0.00 0.00 0.00 0.00 0.00 0.00 0.00 0.00 0.00 0.00 0.00
0.00 0.00 0.00 0.00 0.02 0.03 0.02 0.01 0.01 0.01 0.02 0.12 0.15 0.25 0.39 0.07 0.00 0.00 0.00 0.00 0.00 0.01 0.01 0.01 0.00 0.01 0.01 0.01 0.01 0.03 0.01 0.00 0.00 0.00 0.00 0.00 0.00 0.00 0.00 0.00 0.00 0.00 0.00
0.00 0.00 0.00 0.01 0.01 0.04 0.05 0.04 0.04 0.03 0.02 0.11 0.37 0.21 0.28 0.26 0.01 0.00 0.00 0.00 0.00 0.00 0.00 0.00 0.00 0.00 0.01 0.00 0.00 0.00 0.00 0.00 0.00 0.00 0.00 0.00 0.00 0.00 0.00 0.00 0.00 0.00 0.00
0.01 0.00 0.00 0.01 0.01 0.04 0.05 0.07 0.05 0.03 0.04 0.04 0.25 0.37 0.22 0.21 0.03 0.00 0.00 0.00 0.00 0.00 0.00 0.00 0.00 0.00 0.00 0.00 0.00 0.00 0.00 0.00 0.00 0.00 0.00 0.00 0.00 0.00 0.00 0.00 0.00 0.00 0.00
0.00 0.00 0.00 0.01 0.02 0.03 0.06 0.05 0.03 0.02 0.03 0.15 0.10 0.39 0.38 0.21 0.05 0.00 0.00 0.01 0.00 0.00 0.00 0.00 0.00 0.00 0.00 0.00 0.00 0.00 0.00 0.00 0.00 0.00 0.00 0.00 0.00 0.00 0.00 0.00 0.00 0.00 0.00
0.01 0.01 0.00 0.00 0.01 0.02 0.05 0.06 0.04 0.02 0.03 0.09 0.18 0.27 0.41 0.32 0.17 0.02 0.00 0.00 0.01 0.01 0.00 0.00 0.00 0.00 0.00 0.00 0.00 0.00 0.00 0.00 0.00 0.00 0.00 0.00 0.00 0.00 0.00 0.00 0.00 0.00 0.00
0.01 0.01 0.01 0.01 0.00 0.00 0.02 0.04 0.05 0.04 0.10 0.06 0.08 0.27 0.30 0.31 0.23 0.08 0.01 0.00 0.01 0.01 0.01 0.01 0.01 0.00 0.00 0.00 0.01 0.00 0.00 0.00 0.00 0.00 0.00 0.00 0.00 0.00 0.00 0.00 0.00 0.00 0.00
0.00 0.01 0.01 0.01 0.01 0.01 0.01 0.01 0.03 0.02 0.06 0.11 0.05 0.12 0.31 0.27 0.27 0.09 0.02 0.01 0.00 0.01 0.01 0.00 0.01 0.00 0.00 0.00 0.00 0.02 0.01 0.00 0.00 0.00 0.00 0.00 0.00 0.00 0.00 0.00 0.00 0.00 0.00
0.01 0.01 0.01 0.01 0.01 0.01 0.02 0.02 0.02 0.03 0.03 0.08 0.08 0.08 0.16 0.27 0.26 0.20 0.04 0.02 0.01 0.00 0.00 0.00 0.00 0.00 0.00 0.00 0.00 0.01 0.02 0.01 0.00 0.00 0.00 0.00 0.00 0.00 0.00 0.00 0.00 0.00 0.00
0.00 0.01 0.01 0.01 0.01 0.01 0.02 0.03 0.04 0.04 0.06 0.06 0.07 0.06 0.11 0.18 0.15 0.16 0.07 0.02 0.01 0.01 0.00 0.00 0.00 0.00 0.00 0.00 0.00 0.00 0.00 0.02 0.01 0.00 0.00 0.00 0.00 0.00 0.00 0.00 0.00 0.00 0.00
0.00 0.00 0.01 0.01 0.01 0.02 0.03 0.03 0.04 0.04 0.06 0.07 0.07 0.07 0.08 0.13 0.19 0.16 0.12 0.05 0.02 0.01 0.01 0.01 0.00 0.00 0.00 0.04 0.03 0.01 0.00 0.00 0.01 0.01 0.00 0.00 0.00 0.00 0.00 0.00 0.00 0.00 0.00
0.00 0.01 0.01 0.02 0.02 0.02 0.03 0.04 0.04 0.05 0.06 0.06 0.08 0.09 0.11 0.11 0.20 0.28 0.20 0.10 0.04 0.01 0.01 0.01 0.01 0.00 0.00 0.03 0.01 0.01 0.00 0.00 0.00 0.00 0.01 0.01 0.00 0.00 0.00 0.00 0.00 0.00 0.00
0.00 0.00 0.01 0.01 0.01 0.02 0.02 0.03 0.04 0.05 0.06 0.08 0.08 0.11 0.15 0.19 0.14 0.25 0.32 0.18 0.09 0.03 0.02 0.01 0.00 0.01 0.01 0.03 0.00 0.00 0.00 0.00 0.00 0.01 0.01 0.01 0.01 0.00 0.00 0.00 0.00 0.00 0.00
0.00 0.00 0.01 0.01 0.01 0.01 0.01 0.02 0.03 0.04 0.06 0.08 0.09 0.13 0.15 0.22 0.22 0.14 0.27 0.29 0.17 0.06 0.02 0.01 0.00 0.00 0.02 0.04 0.01 0.01 0.00 0.00 0.00 0.01 0.02 0.01 0.00 0.00 0.00 0.00 0.00 0.00 0.00
0.00 0.00 0.00 0.00 0.00 0.01 0.01 0.01 0.02 0.02 0.03 0.06 0.09 0.14 0.19 0.22 0.31 0.25 0.19 0.25 0.18 0.07 0.03 0.02 0.01 0.01 0.01 0.06 0.05 0.02 0.01 0.01 0.01 0.01 0.01 0.03 0.01 0.00 0.00 0.00 0.00 0.00 0.00
0.00 0.00 0.00 0.00 0.00 0.00 0.00 0.00 0.00 0.01 0.02 0.04 0.05 0.08 0.16 0.20 0.27 0.35 0.27 0.18 0.19 0.12 0.04 0.04 0.02 0.01 0.02 0.03 0.06 0.04 0.01 0.01 0.02 0.01 0.01 0.00 0.00 0.00 0.00 0.00 0.00 0.00 0.00
0.00 0.00 0.00 0.00 0.00 0.00 0.00 0.00 0.00 0.01 0.01 0.01 0.02 0.03 0.07 0.15 0.18 0.29 0.33 0.23 0.16 0.17 0.13 0.06 0.05 0.03 0.02 0.05 0.07 0.03 0.01 0.00 0.01 0.02 0.01 0.00 0.00 0.00 0.00 0.00 0.00 0.01 0.01
0.00 0.00 0.00 0.00 0.00 0.00 0.00 0.00 0.00 0.00 0.00 0.00 0.01 0.02 0.03 0.07 0.13 0.17 0.27 0.29 0.25 0.18 0.18 0.15 0.09 0.05 0.02 0.04 0.08 0.05 0.02 0.01 0.00 0.01 0.02 0.01 0.00 0.00 0.00 0.00 0.01 0.02 0.01
0.00 0.00 0.00 0.00 0.00 0.00 0.00 0.00 0.00 0.00 0.00 0.00 0.01 0.01 0.02 0.04 0.08 0.13 0.18 0.25 0.31 0.31 0.21 0.19 0.14 0.09 0.05 0.04 0.04 0.05 0.04 0.03 0.02 0.04 0.04 0.06 0.05 0.01 0.01 0.01 0.02 0.01 0.01
0.00 0.00 0.00 0.00 0.00 0.00 0.00 0.00 0.00 0.00 0.00 0.00 0.01 0.01 0.02 0.03 0.05 0.09 0.14 0.20 0.28 0.36 0.35 0.20 0.16 0.15 0.10 0.06 0.05 0.02 0.01 0.00 0.01 0.02 0.04 0.08 0.06 0.02 0.01 0.01 0.01 0.01 0.01
0.00 0.00 0.00 0.00 0.00 0.00 0.00 0.00 0.00 0.00 0.00 0.00 0.01 0.01 0.02 0.02 0.04 0.06 0.07 0.12 0.20 0.29 0.33 0.35 0.20 0.15 0.18 0.17 0.11 0.06 0.05 0.04 0.04 0.04 0.04 0.03 0.01 0.01 0.01 0.01 0.02 0.02 0.01
MSLP
1016.17 1015.66 1014.44 1013.21 1012.80 1012.55 1011.18 1009.60 1009.64 1009.31 1009.79 1010.16 1009.80 1008.63 1007.17 1007.82 1008.22 1007.75 1008.02 1009.32 1010.90 1011.96 1012.83 1013.65 1015.05 1016.24 1017.63 1018.63 1020.03 1021.47 1022.70 1024.03 1024.57 1025.39 1026.92 1027.45 1027.56 1027.59 1027.58 1027.55 1027.77 1027.85 1028.05
1016.98 1016.25 1015.62 1015.31 1014.13 1013.80 1012.55 1013.11 1011.10 1010.22 1010.01 1009.91 1009.69 1009.40 1007.37 1007.66 1008.35 1008.83 1009.27 1008.83 1010.21 1012.00 1011.71 1013.47 1014.01 1015.45 1017.14 1018.69 1019.64 1020.72 1022.46 1024.00 1024.06 1025.07 1026.39 1027.97 1028.16 1027.88 1027.97 1027.99 1027.85 1027.90 1028.07
1018.39 1017.24 1016.40 1015.80 1015.86 1014.55 1013.61 1012.33 1012.15 1011.58 1010.81 1008.89 1009.12 1008.91 1008.17 1007.79 1008.21 1008.69 1009.73 1009.82 1010.45 1010.39 1013.52 1013.08 1014.31 1014.32 1016.50 1017.71 1018.85 1019.98 1020.80 1022.61 1023.76 1023.94 1024.45 1027.10 1027.10 1027.68 1027.96 1028.01 1027.98 1027.97 1028.01
1019.43 1018.50 1017.28 1016.27 1015.58 1014.76 1014.65 1014.43 1012.70 1011.91 1011.00 1008.80 1008.33 1008.90 1009.15 1006.66 1007.36 1008.20 1009.22 1010.22 1009.22 1011.31 1012.05 1013.85 1014.17 1015.20 1015.63 1017.73 1018.54 1019.80 1020.68 1021.75 1022.84 1023.66 1023.74 1023.93 1024.69 1026.32 1028.02 1027.94 1028.01 1027.78 1027.81
1020.53 1019.78 1018.89 1017.50 1016.52 1015.42 1014.30 1013.11 1012.52 1012.00 1010.99 1009.00 1008.47 1008.40 1007.79 1006.50 1007.19 1007.99 1008.94 1009.88 1010.62 1010.61 1011.91 1012.97 1013.77 1014.56 1015.14 1016.91 1018.22 1019.35 1020.33 1021.22 1022.06 1022.44 1023.48 1023.93 1024.32 1024.70 1025.64 1027.26 1027.60 1027.74 1027.40
1021.07 1020.68 1020.02 1018.70 1017.29 1016.36 1014.91 1013.67 1012.91 1012.18 1010.74 1010.20 1008.24 1007.93 1007.56 1006.00 1006.59 1007.58 1008.36 1009.12 1010.10 1010.89 1011.81 1011.73 1012.60 1013.21 1014.48 1016.03 1016.98 1017.56 1018.99 1020.08 1021.29 1021.78 1022.37 1022.47 1022.97 1023.81 1024.45 1025.85 1026.89 1027.17 1027.13
1021.52 1020.91 1019.94 1019.46 1018.61 1017.42 1016.35 1014.89 1014.62 1013.50 1011.49 1009.50 1007.20 1007.53 1007.48 1005.05 1005.81 1006.55 1007.51 1008.55 1009.46 1010.23 1010.79 1011.72 1012.60 1013.32 1013.85 1014.86 1016.25 1016.82 1017.00 1018.14 1019.69 1020.45 1021.39 1021.66 1021.65 1022.19 1023.08 1024.20 1025.85 1026.55 1026.63
1021.57 1020.93 1020.06 1019.19 1018.63 1017.64 1016.51 1015.78 1015.14 1013.32 1011.42 1008.76 1007.29 1007.17 1006.67 1004.50 1005.00 1005.93 1006.64 1007.46 1008.24 1009.12 1010.09 1011.01 1011.78 1012.53 1013.38 1014.28 1015.39 1016.26 1017.30 1018.05 1018.76 1018.47 1020.14 1021.07 1021.22 1021.50 1021.76 1023.04 1024.27 1025.91 1026.47
1021.61 1020.86 1019.89 1018.97 1017.79 1017.13 1016.04 1015.40 1014.15 1012.91 1011.00 1009.65 1008.67 1007.31 1007.21 1006.29 1004.22 1005.08 1006.23 1006.82 1007.42 1008.60 1009.57 1010.36 1011.17 1012.03 1012.95 1013.72 1014.64 1015.79 1016.59 1017.36 1017.90 1018.81 1019.12 1020.34 1020.78 1020.97 1021.21 1021.89 1022.43 1023.48 1025.76
1021.61 1020.88 1020.15 1019.12 1017.86 1016.83 1015.51 1015.32 1014.70 1013.52 1011.65 1011.79 1009.45 1007.45 1007.00 1006.12 1003.66 1004.31 1005.28 1006.04 1006.87 1007.81 1008.92 1009.81 1010.55 1011.39 1012.39 1013.37 1014.28 1015.20 1016.24 1016.86 1017.85 1018.87 1019.28 1019.49 1020.10 1020.80 1020.85 1021.47 1021.96 1022.58 1023.50
1021.79 1020.94 1020.24 1019.35 1018.33 1017.10 1016.16 1015.22 1013.63 1012.25 1012.56 1011.28 1007.64 1006.36 1005.72 1005.51 1004.59 1003.32 1004.11 1005.24 1006.17 1006.92 1008.05 1009.29 1010.08 1011.01 1011.84 1012.71 1013.63 1014.55 1015.32 1016.02 1016.83 1018.69 1019.07 1019.04 1019.66 1020.42 1020.81 1020.62 1021.82 1022.38 1022.93
1022.05 1021.10 1020.29 1019.61 1018.59 1017.56 1016.43 1014.98 1014.43 1013.73 1012.81 1009.54 1008.61 1008.05 1006.78 1005.47 1003.87 1002.66 1003.29 1004.52 1005.41 1006.23 1007.31 1008.66 1009.53 1010.36 1011.18 1011.92 1012.72 1013.84 1014.40 1015.25 1016.32 1017.25 1018.28 1018.79 1019.54 1020.48 1020.16 1019.98 1021.29 1021.94 1022.59
1021.87 1021.02 1019.95 1019.04 1018.37 1017.32 1016.31 1015.35 1014.16 1013.14 1011.06 1009.19 1009.00 1007.74 1006.68 1004.51 1004.88 1002.76 1002.84 1003.70 1004.75 1005.84 1006.97 1008.01 1008.78 1009.58 1010.47 1011.48 1012.40 1013.07 1013.76 1014.72 1015.43 1016.12 1017.36 1018.04 1019.13 1019.92 1019.81 1019.86 1020.68 1021.73 1022.27
1021.90 1021.02 1020.02 1019.07 1017.91 1017.06 1016.06 1015.34 1014.31 1013.05 1011.15 1008.75 1008.85 1008.29 1006.19 1006.47 1006.54 1004.98 1002.52 1003.05 1004.00 1005.25 1006.26 1007.05 1007.97 1008.94 1009.92 1010.72 1011.65 1012.55 1013.48 1014.10 1014.94 1015.79 1016.48 1017.15 1018.07 1018.81 1019.32 1019.47 1020.41 1021.51 1022.28
1021.94 1020.98 1020.02 1019.02 1017.75 1016.57 1015.35 1013.93 1013.41 1013.02 1011.73 1011.46 1010.95 1009.07 1007.93 1007.78 1006.66 1004.33 1002.92 1002.60 1003.47 1004.42 1005.43 1006.52 1007.43 1008.27 1009.03 1009.74 1010.72 1011.69 1012.78 1013.60 1014.36 1015.24 1015.84 1016.60 1017.30 1018.20 1019.00 1019.28 1020.01 1021.32 1022.20
1022.16 1021.45 1020.53 1019.55 1018.62 1017.46 1016.35 1015.15 1013.56 1011.69 1011.22 1010.65 1007.64 1008.23 1008.53 1008.04 1006.91 1004.60 1003.96 1003.02 1003.01 1003.69 1004.82 1005.61 1006.40 1007.38 1008.25 1009.19 1010.15 1011.00 1012.08 1013.10 1013.70 1014.59 1015.41 1016.25 1016.93 1017.93 1018.66 1019.31 1019.54 1020.34 1021.28
1022.48 1021.56 1020.86 1019.77 1018.68 1017.70 1016.52 1015.78 1014.53 1013.80 1013.24 1010.83 1010.86 1010.33 1009.41 1008.62 1006.85 1005.34 1004.34 1003.52 1002.80 1003.06 1003.78 1004.79 1005.72 1006.60 1007.51 1008.41 1009.45 1010.49 1011.36 1012.30 1013.01 1013.68 1014.52 1015.81 1016.67 1017.26 1018.20 1019.07 1019.53 1020.17 1020.64
1022.73 1021.75 1020.88 1019.88 1018.59 1017.70 1017.31 1016.25 1015.42 1014.91 1013.32 1012.20 1011.51 1010.36 1009.92 1008.45 1006.96 1005.81 1004.38 1003.88 1002.96 1002.66 1003.14 1004.00 1004.90 1005.97 1006.78 1007.72 1008.71 1009.69 1010.69 1011.38 1012.06 1012.68 1013.42 1014.32 1015.71 1016.63 1017.75 1018.53 1019.49 1020.09 1020.38
1022.70 1021.90 1020.94 1020.19 1019.29 1018.58 1017.40 1016.31 1014.83 1013.19 1012.66 1012.64 1011.34 1010.71 1010.25 1008.17 1007.40 1006.22 1005.08 1004.21 1003.66 1002.93 1002.62 1003.37 1004.32 1005.19 1006.28 1007.13 1008.14 1009.26 1010.09 1010.76 1011.49 1012.09 1012.81 1013.53 1014.86 1015.83 1016.87 1017.89 1019.08 1019.87 1020.19
1022.56 1021.94 1021.09 1020.31 1019.79 1019.03 1018.33 1017.47 1016.36 1015.96 1015.16 1013.85 1013.11 1011.84 1010.46 1008.82 1007.56 1006.68 1005.84 1005.21 1004.38 1003.34 1002.82 1003.13 1003.69 1004.57 1005.73 1006.65 1007.49 1008.48 1009.32 1010.26 1011.17 1011.98 1012.52 1013.18 1013.87 1015.06 1016.15 1017.05 1017.96 1019.16 1019.86
1022.29 1021.57 1021.16 1020.57 1019.81 1019.24 1018.45 1017.72 1016.78 1016.23 1015.11 1014.60 1013.23 1011.76 1010.24 1008.90 1007.65 1006.83 1006.06 1005.35 1003.54 1003.62 1002.94 1003.06 1003.41 1004.36 1004.94 1006.21 1006.78 1007.73 1008.49 1009.45 1010.43 1011.12 1011.82 1012.64 1013.55 1014.50 1015.26 1016.10 1016.92 1017.77 1018.98
1022.21 1021.52 1020.90 1020.16 1019.60 1019.02 1018.39 1017.85 1017.23 1015.98 1014.89 1014.07 1011.92 1010.69 1009.45 1008.51 1007.29 1006.76 1005.99 1005.13 1004.44 1004.05 1002.85 1002.69 1003.37 1004.00 1004.65 1005.31 1006.15 1006.89 1007.74 1008.66 1009.38 1010.00 1010.95 1011.51 1012.67 1013.74 1014.66 1015.73 1016.43 1017.47 1018.68
1022.44 1021.66 1021.20 1020.47 1019.87 1019.12 1018.28 1017.04 1015.96 1015.41 1014.77 1012.69 1010.94 1009.68 1008.49 1007.96 1007.96 1007.20 1006.49 1005.19 1004.31 1003.31 1002.72 1002.84 1003.22 1003.60 1003.95 1004.58 1005.43 1006.24 1007.32 1008.30 1009.05 1009.67 1010.23 1010.97 1012.20 1013.48 1014.63 1015.37 1016.02 1017.16 1018.62
1022.60 1021.80 1021.32 1020.81 1020.20 1019.19 1018.21 1017.05 1016.10 1015.11 1013.74 1012.65 1011.83 1011.01 1009.72 1008.69 1007.88 1007.43 1006.67 1005.72 1004.78 1004.47 1003.89 1003.31 1003.14 1003.06 1003.08 1003.79 1004.70 1005.71 1006.93 1007.99 1008.73 1009.60 1010.37 1011.07 1012.09 1013.24 1014.28 1015.40 1016.39 1017.10 1018.07
1023.19 1022.39 1021.71 1021.07 1020.32 1019.34 1018.10 1017.33 1016.43 1015.31 1014.14 1013.31 1012.37 1011.34 1010.36 1009.75 1008.58 1007.59 1006.88 1005.86 1005.30 1004.91 1004.09 1003.51 1003.03 1002.98 1002.71 1002.91 1003.64 1004.64 1005.80 1006.86 1007.84 1009.13 1010.15 1011.27 1012.23 1013.51 1014.59 1015.32 1016.17 1017.16 1018.02
1023.47 1022.79 1022.09 1021.53 1020.41 1019.73 1018.77 1017.22 1015.94 1015.34 1014.48 1013.44 1012.81 1011.99 1010.96 1009.96 1008.69 1007.76 1006.59 1005.94 1005.35 1004.53 1004.09 1003.72 1002.83 1002.81 1002.81 1003.02 1003.51 1004.11 1004.96 1005.90 1007.04 1008.39 1009.29 1010.20 1011.13 1012.43 1013.65 1014.75 1015.80 1017.02 1017.91
Thickness
5380 5400 5426 5447 5465 5479 5507 5542 5552 5570 5579 5587 5601 5622 5645 5651 5657 5667 5677 5674 5668 5665 5666 5670 5664 5660 5656 5655 5646 5642 5638 5634 5638 5634 5626 5627 5630 5633 5637 5641 5641 5642 5642
5358 5379 5396 5405 5436 5454 5483 5494 5530 5549 5565 5578 5591 5605 5632 5640 5645 5649 5656 5660 5664 5655 5668 5660 5662 5656 5648 5643 5642 5638 5632 5626 5634 5630 5623 5615 5620 5626 5629 5633 5636 5637 5637
5331 5357 5374 5388 5403 5432 5458 5486 5507 5524 5545 5572 5584 5598 5615 5627 5631 5638 5638 5646 5639 5656 5629 5654 5641 5649 5645 5642 5637 5633 5635 5630 5628 5633 5631 5611 5623 5620 5622 5625 5628 5631 5634
5309 5328 5353 5372 5393 5414 5432 5450 5485 5509 5531 5564 5578 5586 5599 5626 5629 5632 5631 5631 5642 5632 5634 5628 5634 5637 5636 5631 5628 5624 5626 5627 5625 5625 5630 5635 5634 5621 5615 5617 5620 5625 5629
5290 5300 5320 5349 5375 5397 5421 5448 5471 5494 5519 5548 5564 5576 5597 5612 5616 5619 5620 5620 5616 5628 5628 5628 5630 5633 5637 5628 5619 5617 5619 5621 5621 5628 5622 5625 5628 5628 5625 5614 5616 5619 5624
5276 5280 5296 5324 5351 5375 5402 5429 5451 5476 5505 5525 5552 5569 5591 5608 5609 5609 5612 5615 5612 5613 5619 5629 5631 5637 5631 5627 5624 5625 5620 5617 5615 5620 5622 5628 5631 5627 5624 5616 5611 5615 5621
5263 5265 5282 5301 5320 5348 5374 5405 5421 5448 5481 5513 5545 5554 5563 5601 5605 5607 5607 5606 5610 5612 5617 5621 5620 5622 5627 5626 5621 5625 5629 5627 5623 5622 5620 5625 5632 5630 5627 5624 5613 5615 5618
5256 5258 5267 5289 5308 5331 5358 5379 5401 5432 5463 5502 5529 5544 5561 5593 5599 5598 5603 5606 5608 5611 5612 5616 5620 5621 5622 5623 5621 5621 5619 5620 5622 5629 5622 5620 5624 5626 5629 5623 5618 5607 5609
5249 5253 5261 5276 5303 5321 5348 5370 5392 5416 5450 5480 5505 5528 5541 5555 5591 5593 5594 5599 5604 5604 5607 5610 5615 5617 5617 5622 5621 5618 5620 5620 5623 5621 5623 5617 5618 5621 5624 5624 5625 5620 5603
5243 5248 5254 5267 5291 5312 5337 5359 5374 5397 5432 5449 5482 5513 5530 5545 5580 5586 5590 5595 5598 5599 5600 5603 5609 5612 5613 5614 5614 5614 5612 5614 5614 5611 5612 5614 5613 5613 5617 5617 5620 5619 5613
5235 5242 5248 5258 5276 5300 5321 5344 5374 5396 5414 5438 5485 5508 5526 5541 5560 5584 5587 5589 5590 5595 5595 5595 5600 5603 5607 5610 5610 5610 5611 5612 5609 5601 5602 5609 5607 5606 5608 5614 5611 5611 5611
5226 5234 5241 5252 5268 5288 5309 5335 5357 5378 5400 5444 5465 5482 5508 5531 5554 5578 5581 5581 5586 5591 5591 5589 5594 5599 5602 5606 5608 5606 5611 5609 5605 5606 5600 5602 5600 5597 5605 5611 5606 5604 5603
5222 5229 5240 5252 5264 5283 5304 5324 5345 5368 5402 5435 5448 5474 5493 5527 5530 5563 5569 5575 5578 5581 5581 5582 5589 5595 5598 5599 5600 5602 5604 5602 5604 5604 5598 5599 5594 5593 5600 5604 5601 5597 5597
5218 5226 5236 5248 5265 5280 5299 5319 5340 5362 5395 5428 5440 5457 5488 5497 5505 5525 5559 5568 5573 5573 5576 5581 5585 5588 5590 5593 5594 5594 5595 5597 5597 5594 5595 5596 5594 5593 5595 5598 5594 5589 5587
5214 5223 5233 5245 5262 5278 5297 5322 5342 5360 5385 5398 5412 5439 5460 5472 5494 5520 5544 5559 5564 5568 5572 5573 5578 5581 5586 5590 5592 5592 5590 5591 5591 5589 5589 5590 5590 5589 5586 5589 5587 5580 5577
5209 5215 5225 5237 5252 5268 5287 5306 5332 5361 5378 5394 5429 5435 5444 5459 5480 5508 5521 5546 5557 5562 5564 5569 5574 5578 5582 5584 5584 5585 5584 5582 5585 5584 5582 5581 5581 5578 5577 5579 5582 5580 5574
5202 5210 5216 5230 5244 5260 5280 5296 5319 5338 5357 5390 5397 5410 5427 5442 5467 5491 5512 5530 5551 5559 5563 5566 5569 5574 5577 5579 5578 5577 5578 5578 5580 5581 5580 5574 5572 5572 5571 5569 5569 5570 5570
5193 5202 5211 5223 5239 5254 5267 5286 5304 5323 5349 5368 5382 5399 5409 5432 5456 5480 5499 5512 5538 5552 5558 5562 5566 5567 5571 5573 5573 5572 5571 5574 5577 5579 5578 5576 5569 5567 5563 5563 5558 5558 5560
5182 5192 5204 5215 5227 5239 5258 5276 5300 5329 5346 5355 5376 5387 5396 5425 5443 5465 5482 5499 5514 5538 5552 5555 5558 5562 5563 5565 5564 5561 5564 5567 5570 5572 5571 5571 5565 5562 5559 5556 5550 5548 5549
5174 5182 5195 5207 5215 5228 5244 5261 5281 5301 5318 5338 5352 5369 5386 5410 5429 5447 5465 5477 5494 5520 5538 5545 5551 5554 5553 5554 5556 5556 5558 5559 5560 5561 5562 5562 5561 5556 5552 5551 5548 5544 5542
5165 5177 5184 5194 5206 5217 5234 5249 5268 5284 5306 5320 5338 5357 5379 5396 5416 5434 5452 5467 5494 5505 5526 5536 5542 5542 5547 5544 5548 5549 5553 5553 5551 5553 5554 5554 5551 5549 5550 5549 5547 5545 5538
5156 5166 5176 5188 5198 5209 5222 5238 5253 5273 5293 5310 5333 5352 5372 5386 5409 5425 5442 5458 5476 5489 5511 5524 5528 5534 5537 5540 5542 5545 5546 5545 5547 5550 5549 5551 5546 5544 5543 5540 5539 5534 5530
5139 5153 5161 5174 5184 5197 5210 5228 5248 5264 5280 5307 5328 5348 5367 5384 5393 5409 5424 5446 5465 5484 5499 5509 5519 5524 5531 5534 5537 5539 5538 5536 5538 5539 5542 5541 5537 5533 5531 5530 5530 5526 5518
5122 5137 5147 5158 5168 5184 5199 5216 5233 5251 5274 5294 5311 5330 5351 5372 5383 5395 5412 5431 5450 5462 5476 5493 5507 5518 5527 5529 5531 5531 5527 5525 5526 5527 5526 5527 5526 5525 5522 5518 5516 5515 5513
5105 5116 5130 5143 5155 5169 5188 5202 5219 5239 5259 5278 5296 5316 5335 5351 5368 5382 5397 5418 5434 5447 5464 5479 5493 5506 5519 5526 5528 5528 5526 5524 5523 5518 5516 5515 5515 5512 5508 5509 5508 5506 5505
5087 5098 5113 5125 5143 5155 5169 5192 5210 5227 5244 5265 5280 5299 5319 5337 5355 5371 5389 5406 5421 5440 5453 5466 5483 5494 5503 5510 5515 5519 5520 5520 5517 5510 5511 5513 5516 5512 5509 5505 5501 5498 5496